Location: Noyers
(47.2770°N, 1.4032°E)
Time: 23:27:01
(UTC+00:00)

Cosmos 2221 - Pass Details

Date: 15 May 2026
Orbit: 569 x 587 km, 82.5° (Epoch: 11 June)

Event Time Altitude Azimuth Distance (km) Brightness Sun altitude
Exits shadow 22:03:28 18° 85° (E) 1,453 4.2 -19.4°
Drops below altitude 10° 22:06:15 10° 43° (NE) 1,902 5.3 -19.6°
Sets 22:09:00 0° 25° (NNE) 2,812 6.5 -19.8°
